Regional Weather Roundup
Issued by NWS

Home | Current Version | Previous Version | Graphics & Text | Print | Product List | Glossary On
Versions: 1 2 3 4 5 6 7 8 9 10 11 12 13 14 15 16 17 18 19 20 21 22 23 24 25 26 27 28 29 30 31 32 33 34 35 36 37 38 39 40 41 42 43 44 45 46 47 48 49 50
831
ASUS43 KLOT 231804
RWRIL

ILLINOIS REGIONAL WEATHER ROUNDUP
NATIONAL WEATHER SERVICE CHICAGO/ROMEOVILLE IL
100 PM CDT WED AUG 23 2017

NOTE: "FAIR" INDICATES FEW OR NO CLOUDS BELOW 12,000 FEET WITH NO
SIGNIFICANT WEATHER AND/OR OBSTRUCTIONS TO VISIBILITY.

* THESE STATIONS ARE NOT UNDER NWS QUALITY CONTROL. THEY ALSO MAY NOT
  REPORT WEATHER SUCH AS PRECIPITATION OR FOG.

ILZ001-002-007-009-015-016-024-231900-
NORTHWEST ILLINOIS

CITY           SKY/WX    TMP DP  RH WIND       PRES   REMARKS
MOLINE         SUNNY     78  47  33 NW14      30.09S
6HR MIN TEMP:  53; 6HR MAX TEMP:  79;

STERLING*      SUNNY     77  52  41 NW17      30.08F
$$

ILZ003-004-008-010-011-017-018-231900-
NORTH CENTRAL ILLINOIS

CITY           SKY/WX    TMP DP  RH WIND       PRES   REMARKS
ROCKFORD       MOSUNNY   76  52  43 NW14G22   30.07F
6HR MIN TEMP:  55; 6HR MAX TEMP:  76;

$$

ILZ005-006-012>014-019>023-231900-
NORTHEAST ILLINOIS

CITY           SKY/WX    TMP DP  RH WIND       PRES   REMARKS
CHICAGO-OHARE  MOSUNNY   74  50  42 NW15G21   30.03F
6HR MIN TEMP:  61; 6HR MAX TEMP:  77;

CHICAGO-MIDWAY MOSUNNY   77  49  37 NW16      30.03F
6HR MIN TEMP:  61; 6HR MAX TEMP:  77;

AURORA         SUNNY     74  55  51 NW15G21   30.06F
6HR MIN TEMP:  52; 6HR MAX TEMP:  75;

WAUKEGAN       MOSUNNY   73  53  49 NW8       30.03F
6HR MIN TEMP:  58; 6HR MAX TEMP:  74;

DUPAGE AIRPORT MOSUNNY   73  54  51 NW15      30.04F
6HR MIN TEMP:  57; 6HR MAX TEMP:  75;

WHEELING       MOSUNNY   74  53  48 NW13      30.05F
6HR MIN TEMP:  59; 6HR MAX TEMP:  76;

NORTHERLY ISL    N/A     69  57  65 N13         N/A
$$

LMZ740>746-231900-
SOUTHERN LAKE MICHIGAN

STATION/POSITION SKY/WX   TEMP    WIND        PRES    VSBY  WAVE
                          AIR SEA DIR/SP/G                  HT/PER
                          (F)     (DEG/KT/KT) (MB)    (MI)  (FT/S)
SOUTHERN BUOY              65 71  340/ 12/ 14 1017.0          3/ 4
WILMETTE HARBOR            69 73   30/  6/ 10   N/A           3/ 5
HARRISON CRIB              69      20/ 12/ 13   N/A
CALUMET HARBOR             70      30/  9/ 11 1016.6F
BURNS HARBOR               69      10/ 10/ 13 1017.9F
MICHIGAN CITY              69     310/ 13/ 15   N/A
MICHIGAN CITY 6N           68 74  340/ 12/ 16   N/A           4/ 5
ST. JOSEPH                 68 73  340/ 12/ 16 1017.4R         4/ 5
$$

ILZ025>027-034>036-040-047-049-050-058-095>099-231900-
WEST-CENTRAL ILLINOIS

CITY           SKY/WX    TMP DP  RH WIND       PRES   REMARKS
QUINCY         SUNNY     76  49  38 N9        30.12F
$$

ILZ028>032-037-038-041>044-048-051>054-059>061-231900-
CENTRAL ILLINOIS

CITY           SKY/WX    TMP DP  RH WIND       PRES   REMARKS
BLOOMINGTON    MOSUNNY   75  49  39 N12       30.10F
DECATUR        MOSUNNY   76  51  41 VRB5      30.09F
PEORIA         MOSUNNY   78  50  37 VRB6      30.09F
6HR MIN TEMP:  56; 6HR MAX TEMP:  78;

SPRINGFIELD    SUNNY     77  55  46 NE5       30.10F
6HR MIN TEMP:  57; 6HR MAX TEMP:  77;

TAYLORVILLE    NOT AVBL
$$

ILZ033-039-045-046-055>057-062-063-231900-
EAST-CENTRAL ILLINOIS

CITY           SKY/WX    TMP DP  RH WIND       PRES   REMARKS
CHAMPAIGN      MOSUNNY   77  49  37 N12       30.08F
MATTOON        MOSUNNY   76  55  48 VRB6G16   30.07F
$$

ILZ079-100>102-231900-
SOUTHWEST ILLINOIS

CITY           SKY/WX    TMP DP  RH WIND       PRES   REMARKS
ALTON          MOSUNNY   75  55  50 NW8       30.11F
CAHOKIA*       MOSUNNY   78  52  40 NW5       30.10F
SPARTA*        SUNNY     75  54  47 N5        30.10F
$$

ILZ064>066-069>071-074>076-080>082-084>086-088>090-092>094-231900-
SOUTH-CENTRAL ILLINOIS

CITY           SKY/WX    TMP DP  RH WIND       PRES   REMARKS
CARBONDALE     SUNNY     77  55  46 N7        30.08F
6HR MIN TEMP:  59; 6HR MAX TEMP:  78;

MARION         MOSUNNY   77  55  47 N9        30.08F
MT. VERNON       N/A     76  53  44 VRB5      30.08F
$$

ILZ067-068-072-073-078-083-087-091-231900-
SOUTHEAST ILLINOIS

CITY           SKY/WX    TMP DP  RH WIND       PRES   REMARKS
LAWRENCEVILLE  MOSUNNY   78  54  43 N10       30.07F
$$

ABBREVIATIONS USED IN REMARKS
   TC - TEMPERATURE IN CELSIUS
  WCI - WIND CHILL INDEX
   HX - HEAT INDEX
  VSB - VISIBILITY
$$





USA.gov is the U.S. government's official web portal to all federal, state and local government web resources and services.